Location: Arlington
(40.6323°N, 74.1651°W)
Time: 21:09:15
(UTC+00:00)

NOAA 11 - Visible Passes

Search period start: 21 February 2020 00:00
Search period end: 02 March 2020 00:00
Orbit: 832 x 850 km, 98.4° (Epoch: 21 February)

Date Brightness Start Highest point End Pass type
(mag) Time Alt. Az. Time Alt. Az. Time Alt. Az.
21 Feb 6.8 00:50:57 10° SW 00:54:41 19° W 00:58:25 10° NW visible
22 Feb 6.4 00:35:36 10° SSW 00:40:00 25° W 00:44:28 10° NW visible
23 Feb 5.9 00:20:29 10° SSW 00:25:22 34° W 00:30:17 10° NNW visible
23 Feb 7.5 11:02:11 10° ENE 11:04:52 14° E 11:07:31 10° ESE visible
24 Feb 5.3 00:05:35 10° S 00:10:46 45° W 00:15:59 10° NNW visible
24 Feb 4.7 23:50:49 10° S 23:56:11 62° W 00:01:35 10° NNW visible
25 Feb 4.3 23:36:12 10° SSE 23:41:38 83° WSW 23:47:06 10° NNW visible
26 Feb 4.1 23:21:42 10° SSE 23:27:07 75° ENE 23:32:33 10° N visible
27 Feb 7.2 01:05:36 10° WSW 01:08:12 13° W 01:10:50 10° WNW visible
27 Feb 4.3 23:07:21 10° SSE 23:12:37 56° ENE 23:17:55 10° N visible
28 Feb 6.8 00:49:47 10° SW 00:53:30 19° W 00:57:14 10° NW visible
29 Feb 6.4 00:34:25 10° SSW 00:38:50 25° W 00:43:16 10° NW visible
01 Mar 5.9 00:19:19 10° SSW 00:24:11 34° W 00:29:04 10° NNW visible
01 Mar 7.6 11:00:58 10° ENE 11:03:40 14° E 11:06:22 10° ESE visible
